EW0624 Weather Reports


time (UTC)temp
C
wind
direction
speed
KPH
gust
KPH
rain 1hr
cm
rain 24hr
cm
rain mn
cm
humidity
%
barometer
mb
20260507095904 13 0 4.8 12.9 0.00 0.13 0.03 99 1010.3
20260507095403 12 340 0.0 4.8 0.00 0.13 0.03 99 1010.3
20260507094904 12 327 1.6 4.8 0.00 0.13 0.03 100 1010.3
20260507094403 12 321 3.2 8.0 0.00 0.13 0.03 100 1010.3
20260507093904 11 288 1.6 4.8 0.00 0.13 0.03 100 1010.4
20260507093404 11 289 1.6 8.0 0.00 0.13 0.03 100 1010.5
20260507092903 11 259 1.6 4.8 0.00 0.13 0.03 100 1010.5
20260507092403 11 259 3.2 4.8 0.00 0.13 0.03 100 1010.5
20260507091903 11 257 1.6 4.8 0.00 0.13 0.03 100 1010.5
20260507091403 11 288 1.6 4.8 0.00 0.13 0.03 100 1010.5
20260507090904 11 284 1.6 4.8 0.00 0.13 0.03 100 1010.5
20260507090404 11 286 3.2 4.8 0.00 0.13 0.03 100 1010.4
20260507085404 10 241 1.6 3.2 0.00 0.13 0.03 100 1010.4
20260507084904 10 178 0.0 1.6 0.00 0.13 0.03 100 1010.4
20260507084404 10 178 0.0 1.6 0.00 0.13 0.03 100 1010.5
20260507083904 10 178 0.0 0.0 0.00 0.13 0.03 100 1010.4
20260507083404 10 178 0.0 0.0 0.00 0.13 0.03 100 1010.5
20260507082403 10 179 0.0 0.0 0.00 0.13 0.03 100 1010.6
20260507081903 10 179 0.0 0.0 0.00 0.13 0.03 100 1010.6
20260507081404 10 179 0.0 0.0 0.00 0.13 0.03 100 1010.6
20260507080403 10 176 1.6 3.2 0.00 0.13 0.03 100 1010.6
20260507075904 9 182 0.0 3.2 0.00 0.13 0.03 100 1010.7
20260507075404 9 187 1.6 4.8 0.00 0.13 0.03 100 1010.8
20260507074904 9 214 0.0 0.0 0.00 0.13 0.03 100 1010.8
20260507073903 8 239 0.0 0.0 0.00 0.13 0.03 100 1010.8
20260507073404 8 239 0.0 0.0 0.00 0.13 0.03 100 1010.9
20260507072904 8 239 0.0 4.8 0.00 0.13 0.03 100 1010.9
20260507072403 8 238 1.6 4.8 0.00 0.13 0.03 100 1011.0
20260507071905 8 238 1.6 4.8 0.00 0.13 0.03 100 1011.0
20260507071405 8 237 0.0 4.8 0.00 0.13 0.03 100 1011.0
20260507070946 8 237 0.0 0.0 0.00 0.13 0.03 100 1011.0
20260507070404 8 241 4.8 9.7 0.00 0.13 0.03 100 1011.0
20260507065904 8 259 3.2 8.0 0.00 0.13 0.03 100 1011.0
20260507065403 8 256 3.2 8.0 0.00 0.13 0.03 100 1011.0
20260507064903 8 257 3.2 4.8 0.00 0.13 0.03 100 1010.9
20260507064404 8 257 1.6 4.8 0.00 0.13 0.03 100 1010.9
20260507063904 8 257 0.0 1.6 0.00 0.13 0.03 100 1011.0
20260507063403 8 257 1.6 3.2 0.00 0.13 0.03 100 1011.0
20260507062904 8 257 0.0 3.2 0.00 0.13 0.03 100 1010.9
20260507062404 8 257 0.0 3.2 0.00 0.13 0.03 100 1010.9
20260507061404 8 257 0.0 0.0 0.00 0.13 0.03 100 1010.9
20260507055904 8 256 0.0 4.8 0.00 0.13 0.03 100 1010.9
20260507055403 8 256 0.0 3.2 0.00 0.13 0.03 100 1010.9
20260507054904 8 256 3.2 4.8 0.00 0.13 0.03 100 1010.9
20260507054404 8 256 1.6 4.8 0.03 0.13 0.03 100 1010.9
20260507052904 8 246 4.8 8.0 0.03 0.13 0.03 100 1010.8
20260507052404 8 260 3.2 4.8 0.03 0.13 0.03 100 1010.8
20260507051904 8 261 1.6 4.8 0.03 0.13 0.03 100 1010.7
20260507051404 8 261 0.0 4.8 0.03 0.13 0.03 100 1010.8
20260507045904 8 258 0.0 0.0 0.03 0.13 0.03 100 1010.8
20260507045404 8 257 0.0 3.2 0.03 0.13 0.03 100 1010.8
20260507044404 8 258 0.0 0.0 0.00 0.10 0.00 100 1010.8
20260507043904 8 258 0.0 0.0 0.00 0.10 0.00 100 1010.9
20260507043404 8 258 0.0 0.0 0.00 0.10 0.00 100 1011.0
20260507042904 8 258 0.0 0.0 0.00 0.10 0.00 100 1010.9
20260507041903 8 258 0.0 0.0 0.00 0.10 0.00 100 1010.9
20260507041404 8 258 1.6 4.8 0.00 0.10 0.00 99 1011.0
20260507035904 9 250 0.0 0.0 0.00 0.10 0.00 99 1011.0
20260507035404 9 250 0.0 0.0 0.00 0.10 0.00 99 1011.0
20260507034904 9 250 0.0 0.0 0.00 0.10 0.00 99 1011.1
20260507034404 9 250 0.0 0.0 0.00 0.10 0.00 99 1011.1
20260507033904 9 250 0.0 0.0 0.00 0.10 0.00 99 1011.1
20260507033404 9 250 0.0 0.0 0.00 0.10 0.00 99 1011.2
20260507032404 9 250 0.0 4.8 0.00 0.10 0.00 99 1011.2
20260507031904 8 249 3.2 4.8 0.00 0.10 0.00 99 1011.3
20260507031404 8 217 0.0 4.8 0.00 0.10 0.00 99 1011.4
20260507030904 9 216 0.0 0.0 0.00 0.10 0.00 99 1011.3
20260507030404 10 214 0.0 0.0 0.00 0.10 0.00 99 1011.3
20260507025904 10 190 0.0 0.0 0.00 0.10 0.00 99 1011.4
20260507025404 10 190 0.0 0.0 0.00 0.10 0.00 99 1011.4
20260507024904 10 190 0.0 0.0 0.00 0.10 0.00 99 1011.4
20260507023904 10 188 0.0 0.0 0.00 0.10 0.00 99 1011.3
20260507023404 10 188 0.0 0.0 0.00 0.10 0.00 98 1011.3
20260507022904 10 188 0.0 0.0 0.00 0.10 0.00 98 1011.4
20260507022404 10 188 0.0 0.0 0.00 0.10 0.00 98 1011.4
20260507021904 10 188 0.0 0.0 0.00 0.10 0.00 98 1011.5
20260507020404 10 190 3.2 8.0 0.00 0.10 0.00 98 1011.6
20260507015904 10 207 3.2 8.0 0.00 0.10 0.00 98 1011.5
20260507015404 10 18 0.0 0.0 0.00 0.10 0.00 98 1011.5
20260507014904 10 18 1.6 4.8 0.00 0.10 0.00 98 1011.5
20260507014404 10 17 1.6 4.8 0.00 0.10 0.00 98 1011.5
20260507013904 10 222 1.6 3.2 0.00 0.10 0.00 98 1011.5
20260507013404 10 221 0.0 0.0 0.00 0.10 0.00 98 1011.7
20260507012904 10 221 0.0 0.0 0.00 0.10 0.00 98 1011.8
20260507011903 10 221 0.0 0.0 0.00 0.10 0.00 98 1012.0
20260507011404 10 221 0.0 0.0 0.00 0.10 0.00 98 1012.0
20260507010904 10 221 0.0 0.0 0.00 0.10 0.00 98 1012.1
20260507010404 10 221 0.0 0.0 0.00 0.10 0.00 98 1012.1
20260507005904 11 221 0.0 0.0 0.00 0.10 0.00 98 1012.2
20260507004904 11 221 1.6 4.8 0.00 0.10 0.00 98 1012.2
20260507004404 11 229 1.6 4.8 0.00 0.10 0.00 98 1012.2
20260507003904 11 245 0.0 0.0 0.00 0.10 0.00 97 1012.3
20260507003404 11 245 4.8 4.8 0.00 0.10 0.00 97 1012.3
20260507002404 11 284 0.0 0.0 0.00 0.10 0.00 97 1012.4
20260507001904 11 284 0.0 0.0 0.00 0.10 0.00 97 1012.4
20260507001404 11 284 0.0 0.0 0.00 0.10 0.00 97 1012.4
20260507000904 11 284 0.0 0.0 0.00 0.10 0.00 97 1012.4
20260507000405 11 284 0.0 0.0 0.00 0.13 0.00 97 1012.5
20260506235904 11 284 0.0 0.0 0.00 0.13 0.00 97 1012.5
20260506235404 11 284 0.0 0.0 0.00 0.13 0.00 97 1012.6
20260506234904 11 284 0.0 0.0 0.00 0.13 0.00 97 1012.7
20260506233404 11 284 0.0 0.0 0.00 0.13 0.00 97 1012.8
20260506232904 11 284 0.0 0.0 0.00 0.13 0.00 97 1012.8
20260506232404 11 284 0.0 0.0 0.00 0.13 0.00 97 1012.8
20260506231904 11 284 0.0 0.0 0.00 0.13 0.00 97 1012.9
20260506231404 11 284 0.0 0.0 0.00 0.13 0.00 97 1012.9
20260506230904 11 284 0.0 0.0 0.00 0.13 0.00 96 1012.9
20260506230404 11 284 0.0 0.0 0.00 0.13 0.00 96 1013.0
20260506225904 11 284 0.0 0.0 0.00 0.15 0.00 96 1012.9
20260506225404 11 284 0.0 0.0 0.00 0.15 0.00 96 1013.0
20260506224404 11 284 0.0 0.0 0.00 0.15 0.00 96 1013.0
20260506223404 11 284 0.0 0.0 0.00 0.15 0.00 96 1013.0
20260506222904 11 284 0.0 4.8 0.00 0.15 0.00 95 1013.1
20260506222404 11 284 0.0 4.8 0.00 0.15 0.00 95 1013.2
20260506221904 11 285 0.0 3.2 0.00 0.15 0.00 95 1013.3
20260506221404 11 285 1.6 4.8 0.00 0.15 0.00 95 1013.4
20260506220904 11 286 0.0 4.8 0.00 0.15 0.00 94 1013.4
20260506220404 11 287 3.2 4.8 0.00 0.15 0.00 94 1013.5
20260506215404 11 34 0.0 0.0 0.00 0.15 0.15 93 1013.5
20260506214904 11 34 0.0 0.0 0.00 0.15 0.15 93 1013.5
20260506214404 11 35 0.0 0.0 0.00 0.15 0.15 93 1013.5
20260506213904 11 34 0.0 0.0 0.00 0.15 0.15 92 1013.5
20260506213404 12 34 0.0 0.0 0.00 0.15 0.15 92 1013.6
20260506212404 12 32 0.0 0.0 0.00 0.15 0.15 92 1013.5
20260506210404 12 29 1.6 4.8 0.00 0.15 0.15 92 1013.5
20260506205904 12 28 1.6 4.8 0.00 0.15 0.15 91 1013.5
20260506205404 12 28 0.0 3.2 0.00 0.15 0.15 91 1013.5
20260506204904 12 27 3.2 8.0 0.00 0.15 0.15 91 1013.5
20260506204404 12 36 1.6 4.8 0.00 0.15 0.15 91 1013.5
20260506203904 12 36 1.6 4.8 0.00 0.15 0.15 91 1013.5
20260506203404 12 37 4.8 8.0 0.00 0.15 0.15 91 1013.5
20260506202904 12 49 4.8 8.0 0.00 0.15 0.15 91 1013.5
20260506202404 12 10 1.6 12.9 0.00 0.15 0.15 91 1013.5
20260506201904 12 22 6.4 9.7 0.00 0.15 0.15 91 1013.5
20260506201404 12 26 3.2 9.7 0.00 0.15 0.15 91 1013.4
20260506200904 12 355 4.8 9.7 0.00 0.15 0.15 91 1013.3
20260506200404 12 29 1.6 12.9 0.00 0.15 0.15 92 1013.3
20260506195905 12 20 9.7 12.9 0.00 0.15 0.15 92 1013.4
20260506195404 12 51 9.7 11.3 0.00 0.15 0.15 92 1013.3
20260506194404 12 35 11.3 16.1 0.00 0.15 0.15 92 1013.2
20260506193904 12 30 6.4 14.5 0.00 0.15 0.15 91 1013.2
20260506193404 12 47 8.0 14.5 0.00 0.15 0.15 91 1013.1
20260506192904 12 22 1.6 4.8 0.00 0.15 0.15 91 1013.2
20260506192404 12 25 6.4 14.5 0.00 0.15 0.15 90 1013.2
20260506191904 12 9 4.8 14.5 0.00 0.15 0.15 90 1013.1
20260506191404 12 31 4.8 9.7 0.00 0.15 0.15 89 1013.1
20260506190904 12 1 4.8 14.5 0.00 0.15 0.15 89 1013.0
20260506190404 12 40 3.2 9.7 0.00 0.15 0.15 89 1013.1
20260506185904 12 21 3.2 14.5 0.00 0.15 0.15 88 1013.1
20260506185404 12 16 4.8 14.5 0.00 0.15 0.15 88 1013.1
20260506184904 12 50 1.6 4.8 0.00 0.15 0.15 88 1013.1
20260506184404 12 328 4.8 9.7 0.00 0.15 0.15 88 1013.1
20260506183905 12 5 1.6 4.8 0.00 0.15 0.15 88 1013.0
20260506183404 12 5 1.6 4.8 0.00 0.15 0.15 87 1013.0
20260506182904 13 4 4.8 12.9 0.00 0.15 0.15 87 1012.9
20260506182404 13 32 4.8 9.7 0.00 0.15 0.15 87 1013.0
20260506181904 12 331 4.8 11.3 0.00 0.15 0.15 86 1013.0
20260506181404 12 15 12.9 19.3 0.00 0.15 0.15 86 1013.0
20260506180404 13 19 11.3 22.5 0.00 0.15 0.15 85 1012.9
20260506175404 13 16 11.3 19.3 0.00 0.15 0.15 85 1012.9
20260506174904 13 322 14.5 20.9 0.00 0.15 0.15 85 1013.0
20260506174404 13 15 11.3 19.3 0.00 0.15 0.15 85 1013.0
20260506173404 13 355 17.7 20.9 0.00 0.15 0.15 84 1013.0
20260506172404 13 336 16.1 24.1 0.00 0.15 0.15 83 1013.0
20260506171904 13 335 12.9 20.9 0.00 0.15 0.15 82 1013.0
20260506171404 13 358 16.1 22.5 0.00 0.15 0.15 81 1013.0
20260506170904 13 2 11.3 19.3 0.00 0.15 0.15 80 1012.9
20260506170404 13 355 8.0 19.3 0.00 0.15 0.15 81 1012.9
20260506165904 13 0 9.7 19.3 0.00 0.15 0.15 80 1012.9
20260506165404 13 316 8.0 19.3 0.00 0.15 0.15 81 1012.8
20260506164404 13 353 14.5 20.9 0.00 0.15 0.15 80 1012.9
20260506163903 13 337 8.0 19.3 0.00 0.15 0.15 79 1012.8
20260506163404 14 28 8.0 16.1 0.00 0.15 0.15 78 1012.9
20260506162904 13 16 9.7 20.9 0.00 0.15 0.15 78 1012.8
20260506162404 13 15 14.5 22.5 0.00 0.15 0.15 78 1012.8
20260506161904 13 4 6.4 20.9 0.00 0.15 0.15 79 1012.8
20260506161405 13 15 14.5 20.9 0.00 0.15 0.15 80 1012.7
20260506160904 14 47 11.3 20.9 0.00 0.15 0.15 80 1012.7
20260506155404 14 12 4.8 14.5 0.00 0.15 0.15 82 1012.7
20260506154904 14 9 9.7 19.3 0.00 0.15 0.15 82 1012.8
20260506154404 14 8 12.9 20.9 0.00 0.15 0.15 83 1012.8
20260506153904 14 15 6.4 16.1 0.00 0.15 0.15 84 1012.8
20260506153404 14 337 12.9 20.9 0.00 0.15 0.15 84 1012.9
20260506152905 13 18 14.5 20.9 0.00 0.15 0.15 84 1012.9
20260506152404 13 33 14.5 22.5 0.00 0.15 0.15 83 1013.0
20260506151404 14 31 11.3 20.9 0.03 0.15 0.15 83 1013.1
20260506150404 13 3 8.0 19.3 0.05 0.15 0.15 85 1013.1
20260506145904 13 38 8.0 19.3 0.05 0.15 0.15 85 1013.2
20260506145404 13 25 9.7 19.3 0.08 0.15 0.15 85 1013.2
20260506144903 13 14 11.3 20.9 0.10 0.15 0.15 86 1013.2
20260506144403 13 29 4.8 14.5 0.10 0.15 0.15 86 1013.3
20260506143903 13 5 6.4 20.9 0.10 0.15 0.15 85 1013.2
20260506142903 13 10 4.8 14.5 0.10 0.15 0.15 88 1013.3
20260506142402 13 43 1.6 4.8 0.10 0.15 0.15 87 1013.3
20260506141903 13 354 1.6 9.7 0.10 0.15 0.15 86 1013.4
20260506141403 13 9 4.8 11.3 0.08 0.13 0.13 86 1013.4
20260506140903 13 45 1.6 4.8 0.08 0.13 0.13 84 1013.6
20260506135902 14 141 3.2 4.8 0.05 0.08 0.08 83 1013.7
20260506134903 14 273 3.2 4.8 0.00 0.05 0.05 81 1013.8
20260506133903 14 263 3.2 11.3 0.00 0.23 0.05 81 1013.8
20260506133403 14 301 8.0 16.1 0.00 0.23 0.05 82 1013.9
20260506132403 14 239 9.7 16.1 0.00 0.23 0.05 81 1014.0
20260506131403 13 318 4.8 12.9 0.00 0.25 0.05 80 1014.1
20260506130903 14 324 6.4 12.9 0.00 0.25 0.05 79 1014.1
20260506125902 13 357 3.2 8.0 0.00 0.25 0.05 80 1014.1
20260506125403 13 14 8.0 14.5 0.00 0.25 0.05 80 1014.1
20260506124902 13 12 9.7 16.1 0.00 0.25 0.05 79 1014.1
20260506124403 13 33 4.8 14.5 0.00 0.25 0.05 80 1014.2
20260506123903 13 0 11.3 16.1 0.00 0.25 0.05 80 1014.2
20260506123403 13 347 12.9 19.3 0.00 0.25 0.05 80 1014.2
20260506122903 13 324 4.8 16.1 0.00 0.25 0.05 81 1014.2
20260506122403 13 343 14.5 20.9 0.00 0.25 0.05 81 1014.3
20260506121403 13 343 11.3 20.9 0.00 0.25 0.05 81 1014.3
20260506120903 13 302 14.5 20.9 0.00 0.25 0.05 81 1014.3
20260506120403 13 340 16.1 25.7 0.00 0.25 0.05 79 1014.3
20260506115903 14 334 14.5 22.5 0.00 0.28 0.05 77 1014.3
20260506115403 15 312 3.2 12.9 0.00 0.28 0.05 72 1014.3
20260506114902 15 0 8.0 12.9 0.00 0.28 0.05 69 1014.3
20260506114403 15 298 1.6 4.8 0.00 0.28 0.05 69 1014.3
20260506112903 15 63 4.8 12.9 0.00 0.28 0.05 71 1014.3
20260506111903 14 322 6.4 9.7 0.00 0.28 0.05 72 1014.4
20260506111403 14 355 1.6 9.7 0.00 0.28 0.05 75 1014.4
20260506110903 13 267 0.0 9.7 0.00 0.28 0.05 76 1014.4
20260506105903 13 291 8.0 12.9 0.00 0.28 0.05 75 1014.5
20260506105403 13 279 8.0 14.5 0.00 0.28 0.05 77 1014.5
20260506104903 13 294 1.6 12.9 0.00 0.28 0.05 77 1014.5
20260506104403 13 311 3.2 12.9 0.00 0.28 0.05 78 1014.5
20260506103903 13 318 4.8 12.9 0.00 0.28 0.05 79 1014.6
20260506103403 13 331 8.0 16.1 0.00 0.28 0.05 79 1014.6
20260506102904 13 299 3.2 11.3 0.00 0.30 0.05 81 1014.5
20260506102403 13 318 1.6 12.9 0.00 0.30 0.05 82 1014.5
20260506101903 13 281 3.2 9.7 0.00 0.30 0.05 81 1014.6
20260506101403 13 292 6.4 12.9 0.00 0.30 0.05 81 1014.6
20260506100903 13 264 6.4 14.5 0.00 0.30 0.05 82 1014.6
20260506100403 12 260 1.6 8.0 0.00 0.33 0.05 83 1014.6